カタログに戻る

GLOBALSTAR M030

運用中通信LEO
NORAD 25854·PAYLOAD·🇺🇸 United States

打ち上げ Jul 10, 1999 から Cape Canaveral Space Force Station

Loading…

次のパス (今後24時間)

TLE

最新Source: Space-Track

元期: Sep 14, 2026, 03:06 UTC

1 25854U 99037D   26257.12933739 -.00000041  00000-0  72671-3 0  9993
2 25854  51.9861 163.0404 0003728 127.0599 233.0559 11.55117168202509

AllMySatでGLOBALSTAR M030をリアルタイム追跡

Download on the App Store